This demonstration page uses our WeatherBlox Daily Observations layout. Learn more.

Left ArrowRight Arrow

30.21309, -93.2044

Hourly Observations for August 23, 2022

Temp ( °F °C ) Dew Point ( °F °C ) Humidity (%) Winds ( mph kmh ) Pressure ( in mb ) Visibility ( mi km ) Precip ( " mm )
12:35 am 00:35 Partly Cloudy 78 25.8 76 24.4 92 92 SE 3 6 29.92 1013 10 16 0.00 0.00
12:55 am 00:55 Partly Cloudy 79 26 76 24.5 91 91 SSE 7 11 29.90 1012 10 16 0.00 0.00
1:15 am 01:15 Clear 79 26.1 76 24.6 91 91 SSE 6 9 29.90 1012 10 16 0.00 0.00
1:35 am 01:35 Clear 79 26.2 76 24.7 91 91 SSE 7 11 29.89 1012 10 16 0.00 0.00
1:55 am 01:55 Partly Cloudy 79 26.1 76 24.7 92 92 SE 7 11 29.88 1012 10 16 0.00 0.00
2:15 am 02:15 Clear 79 26.3 76 24.7 91 91 SSE 5 7 29.87 1011 10 16 0.00 0.00
2:35 am 02:35 Clear 79 26.3 77 24.8 91 91 SSE 6 9 29.86 1011 10 16 0.00 0.00
2:55 am 02:55 Clear 80 26.5 77 24.8 90 90 S 6 9 29.87 1011 10 16 0.00 0.00
3:15 am 03:15 Partly Cloudy 80 26.4 76 24.7 90 90 S 5 7 29.88 1012 10 16 0.00 0.00
3:35 am 03:35 Partly Cloudy 79 26.1 76 24.6 91 91 SSE 3 6 29.88 1012 10 16 0.00 0.00
3:55 am 03:55 Partly Cloudy 78 25.7 76 24.5 93 93 S 6 9 29.88 1012 10 16 0.00 0.00
4:15 am 04:15 Mostly Cloudy with Rain 76 24.6 71 21.5 83 83 SSW 15 24 29.89 1012 2 3 0.09 2.29
4:35 am 04:35 Partly Cloudy 76 24.6 70 21.1 81 81 S 9 15 29.88 1012 10 16 0.09 2.29
4:55 am 04:55 Clear 77 24.8 71 21.6 82 82 SSW 7 11 29.88 1012 10 16 0.09 2.29
5:15 am 05:15 Clear 77 24.9 71 21.9 83 83 SSW 6 9 29.87 1012 10 16 0.00 0.00
5:35 am 05:35 Partly Cloudy 77 25 72 22.3 85 85 SW 5 7 29.88 1012 10 16 0.00 0.00
6:00 am 06:00 Partly Cloudy 77 25 73 23 89 89 Calm 29.87 1012 10 16 0.00 0.00
7:55 am 07:55 Partly Cloudy 77 25 73 23 89 89 S 6 9 29.87 1012 10 16 0.00 0.00
8:45 am 08:45 Partly Cloudy 79 26 75 24 89 89 S 6 9 29.89 1012 10 16 0.00 0.00
9:50 am 09:50 Partly Cloudy 82 28 77 25 84 84 SW 8 13 29.89 1012 10 16 0.00 0.00
10:45 am 10:45 Cloudy with Heavy Rain 79 26 73 23 84 84 SW 13 20 29.91 1013 1 2 0.00 0.00
11:10 am 11:10 Cloudy with Thunderstorms 77 25 72 22 83 83 SSE 6 9 29.89 1012 5 8 0.00 0.00
11:47 am 11:47 Partly Cloudy with Showers 75 24 72 22 89 89 NNW 6 9 29.89 1012 10 16 0.00 0.00
12:55 pm 12:55 Partly Cloudy 84 29 77 25 79 79 S 3 6 29.87 1011 10 16 0.00 0.00
2:15 pm 14:15 Cloudy with Strong Thunderstorms 75 24 72 22 89 89 WSW 25 41 29.90 1013 1 2 0.00 0.00
2:50 pm 14:50 Partly Cloudy 75 24 72 22 89 89 undefined N/A 29.86 1011 10 16 0.00 0.00
3:55 pm 15:55 Mostly Cloudy 84 29 73 23 70 70 S 8 13 29.83 1010 10 16 0.00 0.00
4:46 pm 16:46 Mostly Cloudy with Thunderstorms 77 25 72 22 83 83 WSW 21 33 29.87 1012 1 2 0.00 0.00
5:26 pm 17:26 Partly Cloudy with Thunderstorms 75 24 72 22 89 89 ESE 5 7 29.84 1011 10 16 0.00 0.00
5:57 pm 17:57 Partly Cloudy 75 24 72 22 89 89 ESE 7 11 29.84 1011 10 16 0.00 0.00
6:50 pm 18:50 Partly Cloudy 75 24 73 23 94 94 ESE 5 7 29.84 1011 10 16 0.00 0.00
7:47 pm 19:47 Partly Cloudy 75 24 73 23 94 94 Calm 29.85 1011 10 16 0.00 0.00
8:55 pm 20:55 Partly Cloudy 75 24 73 23 94 94 Calm 29.86 1011 10 16 0.00 0.00
9:55 pm 21:55 Mostly Clear 75 24 73 23 94 94 Calm 29.87 1012 10 16 0.00 0.00
10:15 pm 22:15 Clear 75 24.1 74 23.2 95 95 ESE 5 7 29.87 1012 10 16 0.00 0.00
10:35 pm 22:35 Clear 76 24.7 75 23.7 94 94 SSE 7 11 29.87 1012 10 16 0.00 0.00
10:55 pm 22:55 Clear 77 25.1 75 24.1 94 94 SSE 7 11 29.87 1012 10 16 0.00 0.00
11:15 pm 23:15 Clear 77 25.2 76 24.2 94 94 SSE 7 11 29.88 1012 10 16 0.00 0.00
11:35 pm 23:35 Clear 77 25.2 76 24.2 94 94 SSE 5 7 29.88 1012 10 16 0.00 0.00
11:55 pm 23:55 Clear 77 25 75 24 94 94 SE 3 6 29.88 1012 10 16 0.00 0.00

Powered by AerisWeather